Regional Weather Roundup
Issued by NWS

Home | Current Version | Previous Version | Graphics & Text | Print | Product List | Glossary On
Versions: 1 2 3 4 5 6 7 8 9 10 11 12 13 14 15 16 17 18 19 20 21 22 23 24 25 26 27 28 29 30 31 32 33 34 35 36 37 38 39 40 41 42 43 44 45 46 47 48 49 50
398
ASUS45 KSLC 190510
RWRUT

UTAH REGIONAL WEATHER ROUNDUP
NATIONAL WEATHER SERVICE SALT LAKE CITY UT
1000 PM MST THU JAN 18 2018

UTZ001>011-023>025-190600-

NORTHERN UTAH

CITY           SKY/WX    TMP DP  RH WIND       PRES   REMARKS
BRIGHAM CITY   MOCLDY    37  32  82 NW3       29.93S
HILL AFB       CLOUDY    46  28  48 S14       29.91F
LOGAN          MOCLDY    34  28  79 N5        29.91F WCI  30
OGDEN          MOCLDY    41  28  60 S7        29.91F
SALT LAKE CITY MOCLDY    52  29  41 SE8       29.92F
TOOELE VALLEY  MOCLDY    34  32  93 E6        29.91F WCI  29
WENDOVER       CLOUDY    31  25  78 CALM      29.91F
HEBER CITY       N/A     37  25  60 CALM      29.98F
WEST JORDAN    MOCLDY    50  29  43 SE18      29.94F

$$

UTZ011>015-024>027-190600-

CENTRAL/NORTHEAST UTAH

CITY           SKY/WX    TMP DP  RH WIND       PRES   REMARKS
PROVO AIRPORT  PTCLDY    43  27  53 SE12      30.00R
MOAB/CANYONLAN CLOUDY    31  22  69 CALM      30.13F
DELTA          CLOUDY    46  28  49 S21G28    29.98F
PRICE          CLOUDY    30  23  75 NE6       30.14S WCI  24
ROOSEVELT      MOCLDY    27  18  69 SW6       30.13F WCI  20
VERNAL         CLOUDY    27  16  63 W5        30.10F WCI  22

$$

UTZ013>016-019>022-027-190600-

SOUTHERN UTAH

CITY           SKY/WX    TMP DP  RH WIND       PRES   REMARKS
BRYCE CANYON   CLOUDY    27  25  92 W3        30.19R
CEDAR CITY     MOCLDY    45  26  47 VRB3      30.07F
MILFORD        MOCLDY    42  28  57 S18       30.04F
ST GEORGE      PTCLDY    45  35  68 SW3       30.09R
HANKSVILLE     CLOUDY    32  16  51 CALM      30.16F
BLANDING         N/A     30  18  61 NE7       30.27S WCI  23

$$

REGIONAL REPORTS     COLORADO/ARIZONA

CITY           SKY/WX    TMP DP  RH WIND       PRES   REMARKS
CRAIG, CO      PTCLDY    22  15  75 W5        30.10F WCI  16
GRAND JUNCTION MOCLDY    31  18  58 E3        30.16S
RIFLE, CO      MOCLDY    28  21  75 SW3       30.18S
MONTROSE, CO   CLOUDY    27  17  66 S6        30.21S WCI  20
CORTEZ, CO     MOCLDY    25  18  74 CALM      30.22S
COLORADO CITY    N/A     34  30  86 E3        30.16S
PAGE, AZ       MOCLDY    41  25  53 CALM      30.14F
GRAND CANYON   PTCLDY    27  17  66 E3        30.21F
KINGMAN, AZ    CLEAR     46  29  51 CALM      30.11R
FLAGSTAFF, AZ  MOCLDY    29  18  63 CALM      30.23R

$$

REGIONAL REPORTS    NEVADA/IDAHO/WYOMING

CITY           SKY/WX    TMP DP  RH WIND       PRES   REMARKS
LAS VEGAS, NV  MOCLDY    54  41  61 W3        30.02F
ELY, NY        MOCLDY    41  26  55 S15       30.00F
ELKO, NV       CLOUDY    51  22  31 S22G37    29.82S
POCATELLO, ID  CLOUDY    52  30  43 S33G45    29.75F
BURLEY, ID     CLOUDY    50  31  48 SW26G39   29.72F
FORT BRIDGER,    N/A     37  22  55 SW3       29.99F
EVANSTON, WY   CLEAR     38  24  57 SW14      29.98S WCI  30
ROCK SPRINGS,  PTCLDY    35  18  49 S10       29.95F WCI  27

$$




USA.gov is the U.S. government's official web portal to all federal, state and local government web resources and services.